Wind_Speed
28 26 26 26 26 26 27 27 27 28 30 31 32 33 34 35 36 36 36 35 35 35 34 34 33 33 34 34 34 34 34 33 33 33 33 32 32 33 33 33 33 33 34
29 28 28 28 28 28 28 28 29 30 31 32 33 33 34 35 36 36 36 36 36 36 35 35 34 34 34 34 34 35 35 35 35 36 36 35 35 36 36 36 36 37 37
30 30 29 29 29 29 30 30 31 31 32 33 33 34 34 35 35 35 36 36 36 37 36 36 36 36 36 36 36 36 36 37 38 38 38 38 39 39 39 39 40 41 41
30 30 30 30 29 29 30 31 31 32 33 34 34 35 35 36 36 36 36 37 38 38 38 38 38 39 39 39 40 40 40 40 41 41 41 41 42 42 42 42 43 44 45
31 31 31 31 30 30 31 31 31 32 32 33 34 35 36 37 38 38 38 38 39 40 41 41 41 42 42 42 43 43 43 43 43 44 44 44 44 44 45 46 47 48 49
31 31 32 32 32 31 31 31 32 32 32 33 34 35 36 37 38 38 39 40 40 41 42 43 44 44 44 44 44 45 45 46 46 46 46 46 47 48 49 50 51 53 54
31 32 32 32 32 32 32 32 33 33 33 33 34 35 36 36 37 38 39 40 41 42 43 44 44 45 45 46 46 46 47 47 48 48 49 49 50 51 53 54 56 56 57
34 34 34 33 33 33 33 33 33 34 34 34 35 35 36 36 37 38 40 41 42 43 44 45 45 46 47 47 48 48 49 49 50 51 51 52 54 55 57 58 59 59 60
38 37 37 36 35 34 34 34 34 34 35 35 36 36 37 37 38 39 40 42 43 44 45 46 47 47 48 49 50 50 51 51 52 53 55 56 58 59 60 61 61 62 62
41 40 40 39 37 36 36 36 35 35 36 36 36 37 37 38 38 39 41 42 44 45 46 47 48 49 49 50 51 52 53 54 55 57 59 60 61 62 63 64 64 65 65
44 43 42 41 40 39 38 37 37 37 37 37 38 38 39 40 40 41 42 44 45 47 48 50 50 51 51 52 53 54 55 57 59 60 62 63 64 65 66 67 68 68 70
47 46 45 43 42 41 40 39 38 38 39 39 39 40 40 41 41 43 44 45 47 48 50 52 53 53 54 55 56 57 58 60 62 63 64 65 66 67 68 69 71 72 74
49 48 46 45 44 43 42 40 40 40 40 40 41 41 42 43 44 45 46 47 48 49 50 52 54 55 57 58 60 61 62 63 64 65 66 66 68 69 71 72 74 77 79
51 50 48 46 45 44 43 42 41 41 42 42 43 43 44 45 47 48 49 51 51 52 52 54 56 58 60 61 63 64 65 66 66 67 68 69 71 73 75 77 80 82 85
52 51 49 47 46 45 44 43 42 43 43 44 45 45 46 47 49 50 52 54 55 56 56 56 58 60 62 63 64 65 66 66 68 69 71 74 76 78 81 84 87 89 92
52 51 49 47 46 45 44 43 43 44 44 45 46 46 47 49 51 54 56 58 59 60 60 61 62 64 64 65 65 66 67 68 70 73 76 79 82 86 89 91 93 95 95
51 49 48 46 45 44 43 43 43 45 45 45 46 48 50 52 55 57 59 60 61 63 64 64 66 67 67 67 68 69 70 73 76 80 84 87 90 92 94 94 93 90 86
49 47 46 45 43 42 42 42 43 45 44 45 47 50 53 55 57 59 61 62 63 65 66 66 67 68 68 70 71 73 75 79 84 87 91 93 94 94 91 87 82 77 71
46 44 43 42 41 40 41 41 42 43 44 46 49 53 55 57 60 61 63 64 65 66 67 68 68 69 70 73 75 78 82 86 90 93 94 93 90 86 81 75 70 64 59
41 41 40 39 39 38 39 40 41 43 46 49 52 56 58 60 61 62 64 65 66 67 68 69 70 71 74 78 81 84 86 89 91 91 90 85 80 74 68 64 59 55 52
37 37 37 36 35 36 37 40 43 45 49 52 56 59 60 60 62 63 65 66 67 68 69 70 72 75 78 82 85 88 89 87 84 81 77 72 67 63 59 56 53 51 50
33 33 32 32 33 35 38 41 44 49 52 55 57 59 60 62 63 65 66 67 68 70 72 74 76 80 83 86 88 87 85 80 72 68 65 60 59 56 54 52 52 51 50
29 28 29 31 33 36 39 43 48 51 53 56 58 59 61 62 64 65 66 67 69 73 76 79 81 84 86 87 85 81 74 67 61 59 57 52 52 51 51 51 52 51 49
25 26 29 31 35 39 42 46 49 51 53 56 57 59 61 62 64 65 67 69 72 76 80 83 85 86 85 82 76 68 61 56 53 52 53 49 48 47 46 47 50 49 47
25 27 30 34 38 41 44 47 49 51 53 55 57 59 61 62 65 67 70 73 76 79 82 84 85 82 76 70 63 57 54 51 47 47 50 48 45 44 42 43 46 46 43
26 29 33 36 39 41 44 46 48 51 53 55 58 60 63 65 68 71 74 77 78 80 81 80 76 70 63 57 54 52 51 48 46 45 46 46 44 44 38 37 40 41 40
Wind_Direction
277 279 278 278 278 280 281 281 281 280 279 278 276 275 275 275 276 277 279 280 281 282 282 282 281 279 277 275 274 274 276 277 279 282 283 284 285 284 282 280 278 277 276
274 277 277 277 276 277 279 280 281 281 282 281 280 279 279 278 278 278 279 280 281 282 282 282 281 279 278 277 276 275 275 277 279 280 281 282 283 282 281 279 278 277 276
272 274 277 277 277 278 279 281 281 282 282 282 282 282 282 281 280 280 279 279 281 282 282 281 281 280 279 278 278 277 277 278 279 280 280 281 281 281 280 279 277 277 276
271 272 274 276 277 279 280 281 282 283 283 283 283 284 284 282 281 281 280 280 281 282 282 282 282 281 280 279 279 279 279 279 279 280 280 280 280 280 279 279 278 277 276
269 270 272 274 276 277 279 281 283 284 285 285 285 285 285 284 283 281 281 281 282 283 284 284 284 283 282 281 280 280 280 280 279 279 279 279 279 279 279 279 279 278 277
268 269 271 273 275 277 279 281 283 285 287 288 287 287 286 286 284 283 283 282 283 284 284 285 285 285 284 282 282 281 281 280 280 279 279 279 279 278 279 279 279 279 278
266 268 269 271 273 275 278 281 283 285 287 289 289 289 288 288 286 286 286 286 285 286 286 287 287 286 286 285 284 283 282 281 280 280 279 279 279 279 280 280 280 279 278
266 267 268 270 272 274 277 280 282 285 287 288 288 289 290 289 288 287 288 289 289 290 291 290 290 288 287 286 285 284 283 282 281 280 280 280 280 280 281 280 280 279 278
264 266 267 269 271 273 276 279 282 284 287 288 288 288 289 289 289 289 290 291 292 293 293 292 291 290 289 287 286 285 284 283 282 282 282 282 282 282 282 281 280 279 278
262 264 265 268 270 272 275 278 280 283 286 287 288 289 289 289 289 290 291 292 294 294 294 294 292 291 290 289 288 286 286 285 285 285 285 285 284 284 283 282 282 281 280
260 261 263 266 269 271 273 276 279 282 284 286 287 288 289 289 290 291 294 295 296 296 296 295 294 293 291 290 289 288 287 287 287 287 287 287 286 286 285 285 284 283 282
258 259 261 264 267 269 272 276 279 282 284 285 286 288 289 289 291 293 295 296 297 297 297 296 295 293 292 291 290 289 289 289 288 288 288 287 287 286 286 285 285 284 283
258 259 260 262 265 268 272 275 277 281 283 285 286 288 289 289 293 294 295 295 296 296 295 294 294 293 292 292 291 291 291 290 290 289 288 288 287 286 286 285 284 284 283
256 257 259 261 264 267 270 273 276 279 281 283 285 286 289 290 293 294 295 296 296 295 295 294 294 294 293 293 293 293 293 292 291 290 289 289 288 288 287 286 286 285 284
253 255 257 259 262 266 269 272 275 277 279 282 285 287 289 291 293 294 295 296 296 296 295 294 294 294 294 294 294 293 293 292 291 291 290 290 289 289 289 288 288 287 286
250 253 255 258 261 264 268 271 274 276 278 282 285 288 290 292 293 294 295 296 296 296 296 295 295 295 295 295 294 294 293 292 292 292 291 291 291 291 291 291 290 290 288
248 251 253 256 260 263 267 271 275 276 280 284 286 289 291 292 292 293 294 295 296 296 297 297 297 297 297 296 296 295 295 295 295 295 295 295 295 295 294 294 292 291 289
246 249 252 255 259 263 266 271 274 277 281 285 288 289 290 291 292 293 294 295 296 297 297 298 298 297 297 297 297 297 297 298 298 298 297 297 297 296 295 294 292 291 288
244 247 251 255 258 263 268 272 276 280 284 286 287 288 289 291 292 293 294 295 296 297 298 298 298 298 298 298 298 299 300 300 300 299 299 299 298 296 295 293 291 289 286
242 246 250 255 260 265 270 273 276 281 284 286 286 288 289 290 292 294 295 296 297 298 298 298 298 299 299 299 300 300 301 301 301 300 299 298 297 295 293 292 290 287 284
241 246 250 256 261 266 272 275 277 282 285 285 285 288 290 291 293 295 296 297 298 298 298 299 300 300 300 301 301 302 302 302 301 299 298 297 295 294 293 292 289 286 284
240 246 252 258 265 270 274 277 280 281 282 284 287 289 291 293 295 297 298 299 299 300 300 301 301 302 302 302 303 303 303 302 300 297 297 296 294 294 292 291 289 287 285
240 247 254 261 267 270 274 277 279 280 284 287 289 291 293 295 297 299 299 300 301 301 302 303 303 303 303 303 303 303 303 302 300 297 296 295 293 292 291 289 287 287 285
241 252 260 266 270 271 273 278 282 285 288 290 292 294 296 298 299 299 300 301 302 302 303 303 304 305 305 305 304 304 302 301 301 298 298 298 295 293 291 289 288 287 286
245 254 263 268 271 274 279 283 286 289 291 294 296 298 299 299 300 300 301 302 303 304 305 305 306 306 306 305 304 304 303 303 301 300 299 300 298 295 293 290 288 288 287
251 260 266 271 276 281 285 288 291 293 296 298 299 300 301 301 301 302 302 303 304 305 306 307 307 307 306 305 305 306 306 305 303 301 300 301 300 297 292 289 287 287 287
Height
5821 5821 5821 5821 5820 5820 5819 5818 5817 5817 5816 5815 5814 5814 5812 5810 5809 5808 5806 5805 5804 5803 5801 5800 5798 5797 5796 5795 5794 5793 5792 5791 5790 5789 5788 5787 5786 5785 5784 5783 5783 5782 5782
5816 5816 5815 5815 5814 5814 5813 5812 5811 5810 5809 5808 5807 5806 5805 5803 5802 5800 5799 5798 5797 5795 5794 5793 5791 5790 5788 5787 5786 5785 5784 5783 5782 5781 5780 5779 5778 5777 5776 5775 5774 5774 5773
5810 5810 5809 5809 5808 5808 5807 5806 5805 5804 5802 5801 5800 5799 5797 5796 5794 5793 5791 5790 5789 5788 5786 5785 5783 5782 5781 5779 5778 5777 5776 5774 5773 5772 5771 5770 5768 5767 5766 5765 5764 5764 5763
5803 5803 5803 5803 5802 5801 5800 5799 5798 5797 5795 5794 5792 5791 5789 5788 5786 5785 5783 5782 5780 5779 5778 5776 5775 5773 5772 5771 5769 5768 5766 5765 5764 5762 5761 5759 5758 5757 5755 5754 5753 5753 5752
5796 5796 5796 5796 5795 5795 5794 5793 5791 5790 5788 5787 5785 5783 5781 5779 5778 5776 5775 5773 5772 5770 5768 5767 5765 5764 5762 5761 5759 5757 5756 5754 5753 5751 5750 5748 5747 5745 5744 5742 5741 5740 5739
5789 5788 5788 5788 5788 5788 5787 5786 5784 5783 5781 5779 5777 5775 5773 5771 5769 5768 5766 5765 5763 5761 5759 5757 5755 5753 5752 5750 5748 5746 5744 5743 5741 5740 5738 5736 5734 5733 5731 5729 5728 5726 5725
5781 5781 5781 5781 5780 5780 5779 5778 5777 5775 5774 5772 5770 5768 5765 5763 5761 5759 5757 5756 5754 5752 5750 5747 5745 5743 5741 5739 5737 5735 5733 5730 5729 5727 5725 5723 5721 5719 5717 5715 5713 5711 5710
5773 5773 5773 5773 5773 5772 5771 5770 5769 5768 5766 5764 5762 5760 5758 5756 5753 5751 5748 5746 5744 5741 5739 5737 5734 5732 5730 5727 5724 5722 5720 5718 5715 5713 5711 5709 5707 5705 5702 5700 5697 5695 5693
5765 5765 5765 5765 5765 5764 5763 5762 5761 5760 5758 5756 5754 5752 5750 5748 5745 5742 5739 5737 5734 5731 5728 5725 5723 5720 5718 5715 5712 5709 5706 5704 5701 5699 5696 5694 5691 5688 5685 5683 5680 5678 5676
5756 5756 5756 5756 5756 5756 5755 5754 5753 5752 5750 5748 5746 5743 5741 5739 5736 5734 5731 5727 5724 5721 5717 5714 5711 5708 5705 5702 5699 5695 5692 5689 5686 5683 5680 5677 5674 5670 5667 5664 5661 5659 5657
5746 5747 5747 5747 5747 5747 5746 5745 5744 5743 5741 5739 5737 5734 5732 5729 5727 5724 5721 5718 5714 5710 5705 5701 5698 5694 5691 5688 5685 5681 5678 5674 5670 5667 5663 5659 5655 5651 5647 5644 5641 5638 5635
5735 5737 5738 5738 5738 5738 5737 5736 5735 5734 5732 5730 5728 5725 5723 5720 5717 5714 5711 5708 5704 5699 5693 5688 5684 5680 5677 5673 5670 5666 5662 5658 5654 5649 5645 5641 5636 5632 5628 5624 5620 5616 5613
5724 5726 5727 5728 5729 5728 5728 5727 5726 5724 5723 5721 5718 5716 5713 5710 5707 5704 5701 5697 5694 5689 5684 5677 5671 5667 5663 5658 5654 5650 5646 5641 5636 5631 5626 5622 5617 5613 5608 5604 5599 5595 5590
5714 5715 5717 5718 5719 5719 5718 5717 5716 5715 5713 5711 5709 5706 5703 5700 5696 5693 5689 5685 5681 5678 5672 5666 5659 5653 5648 5643 5637 5633 5628 5622 5617 5612 5606 5601 5596 5591 5586 5581 5576 5570 5565
5702 5704 5706 5708 5709 5709 5708 5708 5707 5705 5704 5701 5699 5696 5693 5689 5685 5681 5676 5672 5667 5663 5660 5653 5646 5639 5633 5627 5621 5616 5610 5604 5598 5592 5586 5580 5574 5568 5562 5555 5549 5542 5536
5690 5693 5695 5697 5698 5699 5698 5698 5697 5695 5693 5691 5688 5685 5681 5677 5672 5668 5663 5657 5652 5647 5643 5638 5631 5624 5617 5610 5604 5598 5592 5585 5579 5571 5564 5557 5550 5542 5534 5527 5519 5511 5503
5679 5683 5685 5687 5688 5689 5689 5688 5687 5685 5683 5680 5677 5674 5670 5665 5660 5654 5649 5643 5637 5632 5627 5621 5613 5606 5598 5591 5585 5578 5571 5564 5556 5547 5538 5530 5522 5513 5504 5494 5486 5478 5470
5669 5673 5675 5677 5679 5679 5679 5679 5677 5675 5672 5670 5666 5662 5657 5652 5647 5641 5635 5629 5623 5616 5610 5605 5597 5589 5580 5572 5565 5558 5550 5541 5531 5521 5511 5501 5491 5481 5472 5463 5455 5449 5443
5659 5663 5666 5668 5669 5670 5670 5669 5667 5665 5662 5659 5654 5650 5644 5639 5633 5627 5621 5615 5608 5600 5593 5586 5580 5571 5563 5553 5545 5537 5528 5516 5504 5492 5482 5472 5462 5452 5444 5436 5431 5425 5421
5651 5655 5658 5660 5661 5661 5661 5659 5657 5655 5651 5647 5642 5637 5631 5625 5619 5613 5606 5599 5592 5584 5576 5568 5561 5553 5544 5533 5524 5515 5507 5493 5479 5464 5453 5445 5436 5428 5420 5415 5410 5406 5402
5644 5648 5650 5652 5653 5653 5651 5649 5647 5643 5639 5635 5630 5624 5618 5611 5605 5598 5591 5583 5575 5567 5559 5551 5543 5534 5523 5512 5502 5491 5481 5471 5456 5439 5432 5423 5414 5408 5401 5395 5391 5387 5385
5638 5641 5643 5644 5644 5643 5642 5639 5636 5633 5628 5623 5617 5611 5604 5597 5590 5582 5574 5566 5557 5548 5540 5531 5523 5512 5501 5489 5479 5467 5456 5448 5438 5422 5413 5407 5396 5392 5385 5379 5374 5370 5367
5632 5634 5635 5635 5635 5634 5632 5629 5626 5621 5616 5610 5604 5597 5590 5582 5574 5566 5558 5550 5539 5528 5519 5510 5501 5489 5479 5467 5457 5446 5434 5424 5416 5403 5397 5394 5384 5378 5371 5363 5357 5354 5351
5625 5627 5627 5627 5626 5624 5622 5619 5614 5609 5603 5597 5590 5583 5576 5567 5559 5551 5543 5533 5522 5511 5500 5489 5478 5466 5454 5443 5433 5425 5416 5409 5401 5388 5379 5378 5371 5364 5358 5349 5341 5338 5336
5619 5620 5620 5619 5618 5615 5612 5608 5603 5597 5590 5583 5576 5568 5561 5553 5544 5535 5526 5517 5505 5493 5479 5466 5455 5443 5432 5422 5414 5407 5400 5393 5387 5378 5365 5362 5357 5350 5346 5337 5328 5323 5321
5613 5613 5612 5611 5609 5605 5601 5596 5591 5585 5578 5571 5562 5553 5545 5536 5527 5516 5507 5497 5486 5474 5461 5447 5434 5423 5414 5405 5397 5391 5384 5377 5371 5365 5355 5349 5342 5335 5334 5328 5318 5311 5308